#timestamp,LO_Frequency,Hit,StdDev 
1546560015.0,286046999.1,N
1546560015.9,286046999.1,N
1546560035.8,286046995.3,N
1546560055.6,286046990.3,Y
1546560075.5,286046996.5,P
1546560095.3,286047002.0,P
1546560115.1,286046998.6,N
1546560135.9,286046999.4,N
1546560155.7,286046993.8,Y
1546560175.5,286047003.4,P
1546560195.4,286047005.5,N
1546560215.2,286047003.4,N
1546560235.1,286047004.4,N
1546560236.0,286047004.4,N
1546560255.8,286046997.7,N
1546560275.6,286047003.3,N
1546560295.5,286047012.0,Y
1546560315.3,286047011.9,P
1546560335.2,286047002.7,N
1546560355.9,286046997.2,N
1546560375.7,286047004.0,N
1546560395.6,286047005.5,N
1546560415.4,286047002.2,N
1546560435.2,286047002.4,N
1546560455.1,286046998.1,N
1546560475.8,286047002.6,N
1546560495.7,286047003.9,N
1546560515.5,286047005.5,N
1546560535.4,286047010.4,N
1546560555.2,286047013.2,Y
1546560575.0,286047005.7,P
1546560575.9,286047005.7,P
1546560595.8,286047006.3,P
1546560615.6,286047006.1,Y
1546560635.5,286047002.8,P
1546560655.3,286046998.1,N
1546560675.1,286047004.4,N
1546560695.9,286047002.2,N
1546560715.7,286047003.1,N
1546560735.5,286046992.1,Y
1546560755.4,286046995.6,P
1546560775.2,286046996.3,N
1546560795.1,286046992.4,N
1546560796.0,286046992.4,N
1546560815.8,286046986.9,Y
1546560835.6,286046990.2,P
1546560855.5,286046996.1,N
1546560875.3,286047004.0,N
1546560895.2,286047000.0,N
1546560915.9,286046997.6,N
1546560935.7,286046990.3,N
1546560955.6,286046994.8,N
1546560975.4,286046994.3,N
1546560995.2,286046999.1,N
1546561015.1,286046988.5,N
1546561016.0,286046988.5,N
1546561035.8,286046988.9,N
1546561055.7,286046990.8,N
1546561075.5,286046991.8,N
1546561095.3,286046990.5,N
1546561115.2,286046990.2,N
1546561135.0,286046990.0,N
1546561135.9,286046990.0,N
1546561155.7,286046987.8,N
1546561175.6,286046992.9,N
1546561195.4,286046991.8,N
1546561215.3,286046998.8,N
1546561235.1,286046992.8,N
1546561255.8,286046990.4,N
1546561275.7,286046993.0,N
1546561295.5,286046988.7,N
1546561315.4,286046987.2,Y
1546561335.2,286046995.2,P
1546561355.0,286046998.0,N
1546561355.9,286046998.0,N
1546561375.8,286046996.8,N
1546561395.6,286047001.3,N
1546561415.4,286047005.3,N
1546561435.3,286047003.3,N
1546561455.1,286047001.3,N
1546561475.9,286047005.7,N
1546561495.7,286047000.2,N
1546561515.5,286046998.1,N
1546561535.4,286047000.6,N
1546561555.2,286046998.4,N
1546561575.0,286046996.9,N
1546561575.9,286046996.9,N
1546561595.8,286047000.4,N
1546561615.6,286046999.6,N
1546561635.5,286047004.7,N
1546561655.3,286047007.0,N
1546561675.2,286047001.8,N
1546561695.9,286047007.1,N
1546561715.7,286047005.1,N
1546561735.6,286047003.1,N
1546561755.4,286047000.0,N
1546561775.3,286047000.1,N
1546561795.1,286047004.0,N
1546561796.0,286047004.0,N
1546561815.8,286047001.1,N
1546561835.7,286046997.4,N
1546561855.5,286046995.2,N
1546561875.3,286046995.9,N
1546561895.2,286046997.6,N
1546561915.0,286046993.8,N
1546561915.9,286046993.8,N
1546561935.8,286047000.8,N
1546561955.6,286047000.0,N
1546561975.4,286047004.1,N
1546561995.3,286046997.3,N
1546562015.1,286046995.8,N
1546562035.9,286046990.9,N
1546562055.7,286046988.8,N
1546562075.5,286046989.7,N
1546562095.4,286046987.8,N
1546562115.2,286046990.8,N
1546562135.0,286046994.7,N
1546562135.9,286046994.7,N
1546562155.8,286046994.2,N
1546562175.6,286047001.1,N
1546562195.5,286047000.0,N
1546562215.3,286046998.8,N
1546562235.1,286046998.3,N
1546562255.9,286046997.5,N
1546562275.7,286046999.2,N
1546562295.5,286046994.1,N
1546562315.4,286046995.3,N
1546562335.2,286046997.6,N
1546562355.1,286046993.9,N
1546562356.0,286046993.9,N
1546562375.8,286046994.3,N
1546562395.6,286046995.8,N
1546562415.5,286046996.5,N
1546562435.3,286046994.9,N
1546562455.1,286046994.9,N
1546562475.9,286046998.8,N
1546562495.7,286047004.2,N
1546562515.6,286047007.5,N
1546562535.4,286047000.1,N
1546562555.2,286046996.5,N
1546562575.1,286046996.9,N
1546562576.0,286046996.9,N
1546562595.8,286046995.6,N
1546562615.6,286046993.5,N
1546562635.5,286046998.7,N
1546562655.3,286046997.7,N
1546562675.2,286046997.5,N
1546562695.9,286046998.7,N
1546562715.7,286046996.0,N
1546562735.6,286047001.9,N
1546562755.4,286047004.1,N
1546562775.2,286046999.7,N
1546562795.1,286047003.4,N
1546562796.0,286047003.4,N
1546562815.8,286047004.4,N
1546562835.7,286047002.7,N
1546562855.5,286046995.6,N
1546562875.3,286046992.9,N
1546562895.2,286046992.0,N
1546562915.0,286046991.9,N
1546562915.9,286046991.9,N
1546562935.8,286046989.2,N
1546562955.6,286046987.2,N
1546562975.4,286046985.9,N
1546562995.3,286046985.8,N
1546563015.1,286046987.7,N
1546563035.8,286046996.0,N
1546563055.7,286046999.5,N
1546563075.5,286046997.3,N
1546563095.4,286046994.4,N
1546563115.2,286046991.7,N
1546563135.0,286046992.9,N
1546563135.9,286046992.9,N
1546563155.8,286046992.7,N
1546563175.6,286046991.1,N
1546563195.4,286046990.8,N
1546563215.3,286046993.8,N
1546563235.1,286046994.8,N
1546563255.9,286046994.5,N
1546563275.7,286046995.1,N
1546563295.5,286046990.2,N
1546563315.4,286046991.4,N
1546563335.2,286046991.0,N
1546563355.0,286046993.2,N
1546563355.9,286046993.2,N
1546563375.8,286046994.0,N
1546563395.6,286046997.0,N
1546563415.5,286047005.5,N
1546563435.3,286047004.9,N
1546563455.1,286047009.2,N
1546563475.9,286047013.5,N
1546563495.7,286047007.4,N
1546563515.5,286047012.0,N
1546563535.4,286047013.7,N
1546563555.2,286047010.1,N
1546563575.1,286047007.6,N
1546563576.0,286047007.6,N
1546563595.8,286047005.3,N
